Location: Cherry Springs State Park
(41.6616°N, 77.8240°W)
Time: 03:00:03
(UTC-05:00)

Amateur Radio Satellites - All Passes

Search period start: 20 January 2017 02:30
Search period end: 21 January 2017 02:30
Location: Cherry Springs State Park, 41.6616°N, 77.8240°W

Satellite Date Start Highest point End Downlink Frequencies (MHz)
Time Altitude Azimuth
BEESAT 20 Jan 02:37:00 02:41:33 45° 261° (W) 02:46:07 436.000
MOZHAYETS 4 20 Jan 02:37:43 02:42:10 54° 73° (ENE) 02:46:39
BEESAT 2 20 Jan 02:38:00 02:41:40 34° 245° (WSW) 02:45:19 435.950
PHONESAT 2.4 20 Jan 02:38:16 02:40:19 29° 163° (SSE) 02:42:23 2401.200-2431.200
SWISSCUBE 20 Jan 02:38:44 02:43:09 39° 262° (W) 02:47:37 437.505
M-CUBED/EXP-1 PRIME 20 Jan 02:46:54 02:51:08 48° 68° (ENE) 02:55:07 437.505
AIST 2 20 Jan 02:54:00 02:55:31 12° 37° (NE) 02:57:01 435.215
Cosmos 2491 20 Jan 02:55:14 03:03:52 66° 281° (W) 03:12:34 435.465 / 435.565
Oscar 19 20 Jan 03:03:10 03:07:00 21° 297° (WNW) 03:10:50 437.125/150
CUSAT 1 20 Jan 03:04:46 03:09:37 55° 93° (E) 03:15:58 437.405
RS-15 20 Jan 03:05:47 03:15:57 29° 337° (NNW) 03:26:18 29.354- 29.394
Gurwin Techsat 1B 20 Jan 03:11:57 03:16:39 33° 293° (WNW) 03:21:19 435.225
KKS-1 20 Jan 03:21:44 03:26:02 52° 73° (ENE) 03:30:22 437.445
CUBESAT XI-V 20 Jan 03:22:35 03:26:26 26° 67° (ENE) 03:30:18 437.345
AUBIESAT-1 20 Jan 03:23:59 03:28:19 82° 254° (WSW) 03:32:22 437.475
ISS 20 Jan 03:27:25 03:30:06 23° 20° (NNE) 03:32:46 145.825
ITUPSAT 1 20 Jan 03:43:38 03:44:47 11° 271° (W) 03:45:54 437.325
ITAMSAT 1 20 Jan 03:43:39 03:48:52 77° 285° (WNW) 03:54:04 435.822/435.867
Cosmos 2504 20 Jan 03:44:59 03:50:45 26° 277° (W) 03:56:22 435.465 / 435.565
DANDE 20 Jan 03:50:56 03:54:20 33° 89° (E) 03:58:46 436.750
AO-7 20 Jan 03:57:54 04:06:18 75° 106° (ESE) 04:14:37 29.400- 29.500
YUBILEINY 20 Jan 04:08:01 04:10:40 12° 288° (WNW) 04:13:19 435.215
PHONESAT 2.4 20 Jan 04:11:58 04:14:14 65° 180° (S) 04:16:31 2401.200-2431.200
STARS 20 Jan 04:16:20 04:20:44 88° 255° (WSW) 04:25:07 437.465
MOZHAYETS 4 20 Jan 04:17:04 04:19:39 15° 269° (W) 04:22:17
M-CUBED/EXP-1 PRIME 20 Jan 04:23:00 04:25:43 16° 261° (W) 04:28:22 437.505
AIST 2 20 Jan 04:30:29 04:34:44 74° 55° (NE) 04:38:58 435.215
CUSAT 1 20 Jan 04:48:05 04:52:14 22° 298° (WNW) 04:57:11 437.405
Cosmos 2491 20 Jan 04:59:02 05:02:40 13° 304° (NW) 05:06:20 435.465 / 435.565
CUBESAT XI-V 20 Jan 04:59:23 05:03:38 34° 264° (W) 05:07:56 437.345
GONETS M04 20 Jan 04:59:52 05:03:43 13° 56° (NE) 05:07:32
KKS-1 20 Jan 05:00:24 05:02:53 15° 268° (W) 05:05:24 437.445
ISS 20 Jan 05:03:35 05:06:49 67° 218° (SW) 05:10:02 145.825
BRITE-PL 20 Jan 05:05:08 05:10:02 64° 100° (E) 05:14:31 437.365/2234.400
GOMX 1 20 Jan 05:12:04 05:15:50 27° 94° (E) 05:19:27 467.674
RS-15 20 Jan 05:24:21 05:34:04 25° 13° (NNE) 05:43:42 29.354- 29.394
LilacSat-2 20 Jan 05:24:25 05:26:38 15° 92° (E) 05:28:51 437.200
ITAMSAT 1 20 Jan 05:26:25 05:27:26 11° 304° (WNW) 05:28:26 435.822/435.867
Cubesat XI-IV 20 Jan 05:34:01 05:37:59 21° 93° (E) 05:41:56 437.490
DANDE 20 Jan 05:34:23 05:37:22 19° 298° (WNW) 05:40:58 436.750
NOAA 18 20 Jan 05:36:43 05:38:09 11° 88° (E) 05:39:34 137.9125
NOAA 15 20 Jan 05:44:20 05:48:50 27° 95° (E) 05:53:16 137.62
PHONESAT 2.4 20 Jan 05:46:03 05:48:11 35° 195° (SSW) 05:50:20 2401.200-2431.200
AO-7 20 Jan 05:51:40 05:58:17 27° 306° (NW) 06:04:54 29.400- 29.500
DOVE 4 20 Jan 05:53:24 05:57:01 27° 95° (E) 06:00:34 437.250
HORYU 2 20 Jan 05:58:26 06:02:54 80° 285° (WNW) 06:07:22 437.375
Cosmos 2499 20 Jan 06:05:03 06:11:33 36° 72° (ENE) 06:17:56 435.465 / 435.565
AIST 2 20 Jan 06:11:31 06:12:35 11° 253° (WSW) 06:13:39 435.215
O/OREOS (USA 219) 20 Jan 06:18:15 06:22:38 57° 108° (ESE) 06:27:02 437.305
CUTE-I 20 Jan 06:29:55 06:35:15 69° 102° (ESE) 06:40:35 437.470
STRAND 1 20 Jan 06:33:01 06:38:05 72° 74° (ENE) 06:43:10 437.568
BRITE-PL 20 Jan 06:45:10 06:47:50 15° 300° (WNW) 06:50:24 437.365/2234.400
GOMX 1 20 Jan 06:50:11 06:53:53 26° 293° (WNW) 06:57:24 467.674
GONETS M04 20 Jan 06:53:42 07:02:31 66° 79° (E) 07:11:17
LilacSat-2 20 Jan 06:57:28 07:01:05 39° 288° (WNW) 07:04:43 437.200
SO-50 20 Jan 07:07:58 07:11:37 22° 112° (ESE) 07:15:13 436.795
Cubesat XI-IV 20 Jan 07:13:09 07:18:19 50° 290° (WNW) 07:23:28 437.490
NOAA 18 20 Jan 07:14:02 07:19:31 89° 104° (ESE) 07:24:59 137.9125
CUTE 1.7 + AOD 2 20 Jan 07:15:06 07:18:51 28° 95° (E) 07:22:33 437.475
NOAA 15 20 Jan 07:23:46 07:28:40 39° 292° (WNW) 07:33:32 137.62
CINEMA 3 20 Jan 07:24:29 07:28:38 65° 101° (E) 07:32:54 145.822/145.860
DOVE 4 20 Jan 07:31:16 07:34:37 23° 292° (WNW) 07:37:55 437.250
RS-15 20 Jan 07:38:25 07:50:29 52° 45° (NE) 08:02:06 29.354- 29.394
CANX-2 20 Jan 07:43:52 07:48:11 71° 102° (ESE) 07:52:27 2200.000
HO-68 20 Jan 07:49:09 07:56:18 63° 103° (ESE) 08:03:23 435.675
SEEDS 20 Jan 07:55:46 07:59:57 54° 99° (E) 08:04:06 437.485
Cosmos 2499 20 Jan 07:58:11 08:04:40 39° 272° (W) 08:11:04 435.465 / 435.565
O/OREOS (USA 219) 20 Jan 07:59:39 08:02:25 16° 307° (NW) 08:05:11 437.305
COMPASS 1 20 Jan 08:01:57 08:05:57 41° 98° (E) 08:09:54 437.405
CUTE-I 20 Jan 08:11:25 08:14:44 17° 299° (WNW) 08:18:02 437.470
Oscar 11 20 Jan 08:12:14 08:14:58 16° 92° (E) 08:17:40 145.826/435.025
AAUSAT CUBESAT 2 20 Jan 08:13:35 08:17:35 42° 98° (E) 08:21:32 437.432
STRAND 1 20 Jan 08:15:22 08:17:46 13° 270° (W) 08:20:12 437.568
CUBEBUG 2 20 Jan 08:21:25 08:25:44 65° 101° (ESE) 08:30:10 437.445
PRISM 20 Jan 08:45:42 08:49:52 86° 255° (WSW) 08:54:04 437.425
FUNcube-1 20 Jan 08:47:09 08:51:21 42° 99° (E) 08:55:35 145.935
SO-50 20 Jan 08:47:16 08:51:48 45° 308° (NW) 08:56:17 436.795
UWE-3 20 Jan 08:50:30 08:54:53 86° 102° (ESE) 08:59:22 435.000/436.395/437.385
CUTE 1.7 + AOD 2 20 Jan 08:51:02 08:54:34 25° 292° (WNW) 08:58:05 437.475
JAS-2 20 Jan 08:51:34 08:54:27 15° 56° (NE) 08:57:28 435.910
GONETS M04 20 Jan 08:51:36 08:58:35 27° 278° (W) 09:05:35
NOAA 18 20 Jan 08:56:48 08:59:24 14° 303° (WNW) 09:01:59 137.9125
CINEMA 3 20 Jan 09:03:50 09:05:17 12° 297° (WNW) 09:06:43 145.822/145.860
UNISAT 6 20 Jan 09:04:14 09:08:15 42° 72° (ENE) 09:12:16 437.425
ZACube-1 20 Jan 09:09:56 09:14:20 84° 103° (ESE) 09:18:49 437.345
TIGRISAT 20 Jan 09:17:31 09:21:40 55° 73° (ENE) 09:25:49 435.000
CANX-2 20 Jan 09:21:59 09:23:25 11° 298° (WNW) 09:24:51 2200.000
HUMSAT D 20 Jan 09:24:22 09:27:24 19° 93° (E) 09:30:26 437.325/437.525
PCSat 20 Jan 09:25:07 09:30:19 44° 54° (NE) 09:35:30 145.827
ANTELSAT 20 Jan 09:32:34 09:36:50 87° 72° (ENE) 09:41:06 437.575/2403.000
SEEDS 20 Jan 09:32:54 09:35:10 14° 296° (WNW) 09:37:26 437.485
DELFI C3 20 Jan 09:33:16 09:37:04 40° 98° (E) 09:40:48 145.870
HO-68 20 Jan 09:37:45 09:43:30 27° 301° (WNW) 09:49:13 435.675
COMPASS 1 20 Jan 09:38:21 09:41:10 18° 294° (WNW) 09:43:59 437.405
NANOSAT C BR1 20 Jan 09:45:54 09:47:00 11° 62° (ENE) 09:48:07 145.865
Oscar 11 20 Jan 09:47:08 09:51:19 45° 288° (WNW) 09:55:29 145.826/435.025
AAUSAT CUBESAT 2 20 Jan 09:49:59 09:52:43 17° 295° (WNW) 09:55:25 437.432
RS-15 20 Jan 09:51:23 10:03:08 54° 249° (WSW) 10:14:25 29.354- 29.394
CUBEBUG 2 20 Jan 09:59:58 10:01:51 13° 297° (WNW) 10:03:45 437.445
FUNcube-1 20 Jan 10:24:14 10:27:16 19° 294° (WNW) 10:30:20 145.935
JAS-2 20 Jan 10:33:18 10:38:36 82° 255° (WSW) 10:44:28 435.910
QB50P1 20 Jan 10:34:51 10:38:45 39° 71° (ENE) 10:42:41 145.935-145.965
POLYITAN 1 20 Jan 10:38:51 10:42:50 44° 72° (ENE) 10:46:50 437.675
QB50P2 20 Jan 10:40:01 10:44:04 49° 73° (ENE) 10:48:07 145.880/145.840
UNISAT 6 20 Jan 10:42:27 10:45:10 16° 268° (W) 10:47:52 437.425
ZACube-1 20 Jan 10:49:30 10:49:58 10° 299° (WNW) 10:50:26 437.345
TIGRISAT 20 Jan 10:56:53 10:58:42 12° 269° (W) 11:00:32 435.000
HUMSAT D 20 Jan 10:59:09 11:03:08 38° 289° (WNW) 11:07:06 437.325/437.525
BY70-1 20 Jan 11:00:37 11:03:53 52° 100° (E) 11:06:56 436.1900
POPSAT HIP 1 20 Jan 11:01:26 11:05:37 79° 76° (ENE) 11:09:49 437.405
Oscar 19 20 Jan 11:06:10 11:06:38 10° 56° (ENE) 11:07:07 437.125/150
PCSat 20 Jan 11:08:59 11:13:28 27° 252° (WSW) 11:17:56 145.827
DELFI C3 20 Jan 11:09:03 11:11:32 16° 294° (WNW) 11:13:59 145.870
Cosmos 2491 20 Jan 11:11:23 11:15:04 13° 56° (NE) 11:18:44 435.465 / 435.565
CUBEBUG 1 20 Jan 11:11:39 11:14:54 20° 94° (E) 11:18:07 437.445
DUCHIFAT 1 20 Jan 11:12:30 11:16:39 89° 220° (SW) 11:20:51 145.980
NANOSAT C BR1 20 Jan 11:17:58 11:22:08 71° 258° (WSW) 11:26:19 145.865
AISAT 20 Jan 11:27:37 11:30:50 20° 94° (E) 11:34:01 437.250
50 SAT 20 Jan 11:42:45 11:45:13 18° 94° (E) 11:47:39 437.505
BUGSAT 1 20 Jan 11:47:53 11:51:58 81° 75° (ENE) 11:56:01 437.445
ESTCUBE 1 20 Jan 11:48:07 11:52:41 89° 105° (ESE) 11:57:12 437.505/2401.250
CUSAT 1 20 Jan 11:59:05 12:00:33 11° 53° (NE) 12:01:59 437.405
VELOX 1 20 Jan 12:00:17 12:04:28 42° 99° (E) 12:08:37 145.980
QB50P1 20 Jan 12:11:55 12:14:41 17° 267° (W) 12:17:28 145.935-145.965
POLYITAN 1 20 Jan 12:16:22 12:18:51 15° 268° (W) 12:21:20 437.675
QB50P2 20 Jan 12:17:56 12:20:07 14° 269° (W) 12:22:20 145.880/145.840
SPROUT 20 Jan 12:29:59 12:34:14 69° 102° (ESE) 12:38:28 437.525
UKube-1 20 Jan 12:32:26 12:36:19 32° 97° (E) 12:40:09 .
DX 1 20 Jan 12:32:51 12:37:02 44° 99° (E) 12:41:10 434.975-435.025
Oscar 19 20 Jan 12:39:51 12:45:01 74° 74° (ENE) 12:50:14 437.125/150
CUBEBUG 1 20 Jan 12:47:19 12:51:16 35° 290° (WNW) 12:55:11 437.445
AO-85 20 Jan 12:51:48 12:54:49 17° 111° (ESE) 12:57:44 145.980
Gurwin Techsat 1B 20 Jan 12:53:07 12:58:15 53° 71° (ENE) 13:03:26 435.225
AIST 1 20 Jan 12:55:58 12:58:24 15° 85° (E) 13:00:50
AISAT 20 Jan 13:03:21 13:07:24 37° 290° (WNW) 13:11:26 437.250
Cosmos 2491 20 Jan 13:05:08 13:13:53 65° 79° (E) 13:22:37 435.465 / 435.565
AO-7 20 Jan 13:06:58 13:13:16 25° 53° (NE) 13:19:34 29.400- 29.500
YUBILEINY 20 Jan 13:12:45 13:20:03 31° 83° (E) 13:27:23 435.215
50 SAT 20 Jan 13:15:23 13:18:26 27° 290° (WNW) 13:21:27 437.505
ITAMSAT 1 20 Jan 13:24:03 13:27:56 22° 63° (ENE) 13:31:50 435.822/435.867
ESTCUBE 1 20 Jan 13:28:17 13:28:44 10° 301° (WNW) 13:29:11 437.505/2401.250
CUSAT 1 20 Jan 13:36:44 13:44:29 50° 73° (ENE) 13:51:41 437.405
VELOX 1 20 Jan 13:37:32 13:40:37 19° 295° (WNW) 13:43:39 145.980
TISAT 1 20 Jan 13:58:14 14:02:25 88° 295° (WNW) 14:06:36 437.305
ITUPSAT 1 20 Jan 14:02:44 14:06:13 20° 93° (E) 14:09:41 437.325
SPROUT 20 Jan 14:08:07 14:09:35 12° 298° (WNW) 14:11:02 437.525
UKube-1 20 Jan 14:08:46 14:12:10 23° 294° (WNW) 14:15:33 .
DX 1 20 Jan 14:10:00 14:12:52 17° 296° (WNW) 14:15:42 434.975-435.025
Oscar 19 20 Jan 14:22:24 14:24:53 13° 271° (W) 14:27:21 437.125/150
DANDE 20 Jan 14:25:15 14:32:38 45° 74° (ENE) 14:40:32 436.750
Cosmos 2504 20 Jan 14:27:49 14:36:04 50° 90° (E) 14:43:52 435.465 / 435.565
AO-85 20 Jan 14:30:17 14:34:55 56° 306° (NW) 14:39:13 145.980
AIST 1 20 Jan 14:31:21 14:35:34 46° 282° (WNW) 14:39:46
MOZHAYETS 4 20 Jan 14:34:17 14:36:19 13° 90° (E) 14:38:20
Gurwin Techsat 1B 20 Jan 14:34:43 14:38:30 20° 268° (W) 14:42:19 435.225
BEESAT 20 Jan 14:36:36 14:41:11 43° 99° (E) 14:45:43 436.000
SWISSCUBE 20 Jan 14:38:09 14:42:51 51° 100° (E) 14:47:30 437.505
BRITE-PL 20 Jan 14:40:32 14:42:33 12° 58° (ENE) 14:44:34 437.365/2234.400
O/OREOS (USA 219) 20 Jan 14:50:12 14:52:28 14° 52° (NE) 14:54:44 437.305
AO-7 20 Jan 14:56:43 15:05:06 83° 252° (WSW) 15:13:33 29.400- 29.500
ITAMSAT 1 20 Jan 15:02:05 15:07:04 48° 260° (W) 15:12:04 435.822/435.867
Cosmos 2491 20 Jan 15:03:03 15:10:00 27° 278° (W) 15:16:59 435.465 / 435.565
YUBILEINY 20 Jan 15:07:37 15:16:16 59° 283° (WNW) 15:25:01 435.215
CUSAT 1 20 Jan 15:19:03 15:26:09 37° 273° (W) 15:32:47 437.405
HORYU 2 20 Jan 15:24:23 15:24:51 10° 59° (ENE) 15:25:19 437.375
SO-50 20 Jan 15:38:24 15:42:03 23° 44° (NE) 15:45:39 436.795
ITUPSAT 1 20 Jan 15:39:39 15:44:15 45° 289° (WNW) 15:48:48 437.325
BEESAT 3 20 Jan 15:44:45 15:48:03 27° 114° (ESE) 15:51:25 437.485
M-CUBED/EXP-1 PRIME 20 Jan 16:00:25 16:03:15 25° 102° (ESE) 16:06:01 437.505
STARS 20 Jan 16:06:37 16:09:19 16° 92° (E) 16:12:01 437.465
DANDE 20 Jan 16:08:02 16:15:20 44° 269° (W) 16:23:03 436.750
MOZHAYETS 4 20 Jan 16:09:17 16:13:54 65° 285° (WNW) 16:18:29
BRITE-PL 20 Jan 16:14:25 16:20:06 76° 75° (ENE) 16:25:44 437.365/2234.400
CUTE-I 20 Jan 16:14:49 16:17:55 16° 60° (ENE) 16:21:01 437.470
BEESAT 20 Jan 16:15:05 16:18:38 21° 296° (WNW) 16:22:12 436.000
SWISSCUBE 20 Jan 16:16:56 16:20:14 19° 297° (WNW) 16:23:31 437.505
GOMX 1 20 Jan 16:19:07 16:24:00 36° 70° (ENE) 16:28:42 467.674
Cosmos 2504 20 Jan 16:21:48 16:29:36 36° 288° (WNW) 16:37:02 435.465 / 435.565
O/OREOS (USA 219) 20 Jan 16:27:54 16:32:23 71° 251° (WSW) 16:36:53 437.305
BEESAT 2 20 Jan 16:29:16 16:32:52 36° 116° (ESE) 16:36:33 435.950
AUBIESAT-1 20 Jan 16:36:39 16:40:00 64° 107° (ESE) 16:43:15 437.475
KKS-1 20 Jan 16:48:35 16:53:01 79° 286° (WNW) 16:57:27 437.445
AO-7 20 Jan 16:54:13 16:59:00 16° 271° (W) 17:03:49 29.400- 29.500
CUBESAT XI-V 20 Jan 16:55:06 16:59:45 58° 100° (E) 17:04:20 437.345
Cubesat XI-IV 20 Jan 16:55:58 17:00:45 35° 68° (ENE) 17:05:33 437.490
HORYU 2 20 Jan 16:56:17 17:00:42 85° 260° (W) 17:05:07 437.375
DOVE 4 20 Jan 16:58:18 17:02:45 34° 70° (ENE) 17:06:59 437.250
NOAA 18 20 Jan 17:01:34 17:05:54 25° 63° (ENE) 17:10:14 137.9125
NOAA 15 20 Jan 17:04:21 17:09:21 45° 69° (ENE) 17:14:24 137.62
YUBILEINY 20 Jan 17:12:35 17:15:17 12° 306° (NW) 17:18:01 435.215
SO-50 20 Jan 17:18:25 17:22:43 45° 243° (WSW) 17:26:58 436.795
BEESAT 3 20 Jan 17:22:15 17:25:37 27° 312° (NW) 17:29:02 437.485
M-CUBED/EXP-1 PRIME 20 Jan 17:35:21 17:37:35 17° 299° (WNW) 17:39:46 437.505
LilacSat-2 20 Jan 17:38:58 17:42:43 81° 258° (WSW) 17:46:32 437.200
STARS 20 Jan 17:41:43 17:45:54 46° 288° (WNW) 17:50:04 437.465
CUTE-I 20 Jan 17:52:02 17:57:20 73° 257° (WSW) 18:02:40 437.470
BRITE-PL 20 Jan 17:55:48 17:59:03 15° 271° (W) 18:02:18 437.365/2234.400
GOMX 1 20 Jan 17:57:22 18:02:03 29° 265° (W) 18:06:35 467.674
GONETS M04 20 Jan 18:04:18 18:08:01 13° 74° (ENE) 18:11:43
BEESAT 2 20 Jan 18:07:35 18:10:46 23° 314° (NW) 18:13:59 435.950
CUTE 1.7 + AOD 2 20 Jan 18:08:15 18:11:28 21° 67° (ENE) 18:14:43 437.475
HO-68 20 Jan 18:17:43 18:24:32 48° 66° (ENE) 18:31:22 435.675
CINEMA 3 20 Jan 18:26:03 18:30:25 60° 75° (ENE) 18:34:38 145.822/145.860
AIST 2 20 Jan 18:29:55 18:32:05 14° 109° (ESE) 18:34:16 435.215
CUBESAT XI-V 20 Jan 18:33:50 18:36:37 16° 297° (WNW) 18:39:22 437.345
DOVE 4 20 Jan 18:36:12 18:40:25 27° 265° (W) 18:44:28 437.250
Cubesat XI-IV 20 Jan 18:36:13 18:40:50 30° 264° (W) 18:45:28 437.490
CANX-2 20 Jan 18:36:28 18:40:34 49° 73° (ENE) 18:44:43 2200.000
NOAA 18 20 Jan 18:40:57 18:46:14 48° 260° (W) 18:51:33 137.9125
Cosmos 2499 20 Jan 18:41:38 18:48:45 32° 86° (E) 18:55:29 435.465 / 435.565
STRAND 1 20 Jan 18:43:52 18:48:00 24° 94° (E) 18:52:06 437.568
NOAA 15 20 Jan 18:45:08 18:49:18 23° 266° (W) 18:53:31 137.62
SEEDS 20 Jan 18:47:25 18:51:18 37° 71° (ENE) 18:55:13 437.485
COMPASS 1 20 Jan 18:52:48 18:56:24 28° 69° (ENE) 19:00:01 437.405
AAUSAT CUBESAT 2 20 Jan 19:03:53 19:07:29 29° 70° (ENE) 19:11:07 437.432
Oscar 11 20 Jan 19:08:02 19:10:10 14° 63° (ENE) 19:12:19 145.826/435.025
CUBEBUG 2 20 Jan 19:19:44 19:23:47 52° 74° (ENE) 19:27:49 437.445
FUNcube-1 20 Jan 19:43:04 19:46:43 32° 70° (ENE) 19:50:26 145.935
CUTE 1.7 + AOD 2 20 Jan 19:43:14 19:47:06 33° 263° (W) 19:51:00 437.475
UWE-3 20 Jan 19:47:36 19:51:42 68° 76° (ENE) 19:55:51 435.000/436.395/437.385
GONETS M04 20 Jan 19:54:31 20:03:10 74° 94° (E) 20:11:54
ZACube-1 20 Jan 20:05:49 20:09:53 64° 75° (ENE) 20:14:01 437.345
HO-68 20 Jan 20:06:01 20:12:24 34° 264° (W) 20:18:48 435.675
AIST 2 20 Jan 20:06:02 20:10:04 55° 306° (NW) 20:14:12 435.215
CINEMA 3 20 Jan 20:06:13 20:07:53 12° 269° (W) 20:09:33 145.822/145.860
CANX-2 20 Jan 20:14:24 20:16:42 14° 269° (W) 20:19:00 2200.000
HUMSAT D 20 Jan 20:16:51 20:18:52 13° 63° (ENE) 20:20:55 437.325/437.525
DELFI C3 20 Jan 20:19:09 20:22:26 25° 69° (ENE) 20:25:44 145.870
STRAND 1 20 Jan 20:22:29 20:27:18 42° 291° (WNW) 20:32:06 437.568
SEEDS 20 Jan 20:24:09 20:27:07 18° 267° (W) 20:30:06 437.485
COMPASS 1 20 Jan 20:28:30 20:31:54 24° 266° (W) 20:35:21 437.405
PRISM 20 Jan 20:28:47 20:30:31 12° 91° (E) 20:32:14 437.425
Cosmos 2499 20 Jan 20:33:21 20:41:32 53° 283° (WNW) 20:49:11 435.465 / 435.565
AAUSAT CUBESAT 2 20 Jan 20:39:34 20:42:56 23° 266° (W) 20:46:19 437.432
Oscar 11 20 Jan 20:41:33 20:45:47 59° 259° (W) 20:50:06 145.826/435.025
CUBEBUG 2 20 Jan 20:58:57 21:00:44 12° 269° (W) 21:02:31 437.445
TIGRISAT 20 Jan 21:10:34 21:12:05 11° 90° (E) 21:13:35 435.000
BY70-1 20 Jan 21:17:24 21:18:11 11° 64° (ENE) 21:18:58 436.1900
FUNcube-1 20 Jan 21:19:57 21:23:02 20° 267° (W) 21:26:09 145.935
AO-85 20 Jan 21:22:18 21:24:39 15° 41° (NE) 21:26:59 145.980
ANTELSAT 20 Jan 21:24:32 21:27:35 18° 93° (E) 21:30:41 437.575/2403.000
JAS-2 20 Jan 21:42:11 21:46:42 17° 89° (E) 21:51:21 435.910
ISS 20 Jan 21:43:39 21:46:35 31° 137° (SE) 21:49:32 145.825
ZACube-1 20 Jan 21:46:23 21:46:37 10° 271° (W) 21:46:53 437.345
HUMSAT D 20 Jan 21:50:00 21:54:00 53° 260° (W) 21:58:04 437.325/437.525
DELFI C3 20 Jan 21:53:48 21:57:09 25° 265° (W) 22:00:32 145.870
GONETS M04 20 Jan 21:54:07 22:00:53 25° 295° (WNW) 22:07:44
PRISM 20 Jan 22:02:07 22:06:08 53° 287° (WNW) 22:10:05 437.425
RS-15 20 Jan 22:04:10 22:13:23 28° 101° (E) 22:22:51 29.354- 29.394
CUBEBUG 1 20 Jan 22:08:01 22:11:06 19° 65° (ENE) 22:14:12 437.445
AISAT 20 Jan 22:25:17 22:28:27 19° 65° (ENE) 22:31:36 437.250
UNISAT 6 20 Jan 22:31:28 22:35:56 86° 282° (WNW) 22:40:28 437.425
TIGRISAT 20 Jan 22:44:45 22:49:09 67° 286° (WNW) 22:53:38 435.000
BY70-1 20 Jan 22:45:14 22:48:02 37° 262° (W) 22:51:04 436.1900
ESTCUBE 1 20 Jan 22:47:22 22:51:54 82° 75° (ENE) 22:56:29 437.505/2401.250
POPSAT HIP 1 20 Jan 22:47:44 22:49:31 12° 91° (E) 22:51:18 437.405
VELOX 1 20 Jan 22:57:29 23:01:36 38° 71° (ENE) 23:05:45 145.980
DUCHIFAT 1 20 Jan 22:57:43 22:59:54 14° 91° (E) 23:02:06 145.980
ANTELSAT 20 Jan 23:00:16 23:04:28 43° 288° (WNW) 23:08:45 437.575/2403.000
AO-85 20 Jan 23:01:34 23:05:25 59° 241° (WSW) 23:09:16 145.980
NANOSAT C BR1 20 Jan 23:02:54 23:05:45 18° 93° (E) 23:08:37 145.865
ISS 20 Jan 23:20:01 23:23:02 34° 334° (NNW) 23:26:03 145.825
YUBILEINY 20 Jan 23:23:02 23:27:38 15° 57° (ENE) 23:32:10 435.215
SPROUT 20 Jan 23:23:16 23:27:23 52° 73° (ENE) 23:31:32 437.525
JAS-2 20 Jan 23:25:08 23:32:22 88° 105° (ESE) 23:40:11 435.910
UKube-1 20 Jan 23:27:04 23:30:47 28° 68° (ENE) 23:34:30 .
DX 1 20 Jan 23:28:19 23:32:24 40° 71° (ENE) 23:36:30 434.975-435.025
BUGSAT 1 20 Jan 23:31:44 23:32:45 11° 90° (E) 23:33:47 437.445
CUBEBUG 1 20 Jan 23:42:54 23:47:05 42° 262° (W) 23:51:16 437.445
50 SAT 20 Jan 23:49:19 23:52:52 68° 258° (WSW) 23:56:27 437.505
QB50P1 20 Jan 23:54:26 23:58:40 74° 103° (ESE) 00:02:52 145.935-145.965
POLYITAN 1 20 Jan 23:58:43 00:02:58 83° 105° (ESE) 00:07:13 437.675
QB50P2 20 Jan 23:59:59 00:04:14 89° 287° (WNW) 00:08:29 145.880/145.840
AISAT 21 Jan 00:00:24 00:04:36 41° 261° (W) 00:08:50 437.250
BEESAT 3 21 Jan 00:01:15 00:04:20 21° 45° (NE) 00:07:23 437.485
PCSat 21 Jan 00:07:04 00:12:01 38° 111° (ESE) 00:16:59 145.827
RS-15 21 Jan 00:12:29 00:24:23 84° 303° (WNW) 00:36:51 29.354- 29.394
Cosmos 2491 21 Jan 00:15:56 00:19:35 13° 74° (ENE) 00:23:13 435.465 / 435.565
POPSAT HIP 1 21 Jan 00:21:29 00:25:37 56° 286° (WNW) 00:29:46 437.405
Cosmos 2504 21 Jan 00:22:17 00:26:16 15° 60° (ENE) 00:30:10 435.465 / 435.565
DUCHIFAT 1 21 Jan 00:31:48 00:35:51 49° 287° (WNW) 00:39:55 145.980
VELOX 1 21 Jan 00:34:56 00:38:11 20° 266° (W) 00:41:27 145.980
NANOSAT C BR1 21 Jan 00:37:42 00:41:37 39° 289° (WNW) 00:45:32 145.865
AIST 1 21 Jan 00:38:00 00:42:03 40° 77° (ENE) 00:46:03
BEESAT 2 21 Jan 00:46:45 00:50:11 26° 47° (NE) 00:53:36 435.950
TISAT 1 21 Jan 00:49:34 00:53:43 69° 75° (ENE) 00:57:53 437.305
Oscar 19 21 Jan 00:51:48 00:56:03 25° 94° (E) 01:00:15 437.125/150
ISS 21 Jan 00:58:16 01:00:14 15° 353° (N) 01:02:12 145.825
SPROUT 21 Jan 01:01:30 01:03:37 13° 269° (W) 01:05:44 437.525
UKube-1 21 Jan 01:03:09 01:06:46 26° 264° (W) 01:10:23 .
BUGSAT 1 21 Jan 01:04:30 01:08:28 58° 286° (WNW) 01:12:27 437.445
DX 1 21 Jan 01:05:41 01:08:45 18° 267° (W) 01:11:49 434.975-435.025
ITUPSAT 1 21 Jan 01:09:39 01:13:26 24° 66° (ENE) 01:17:15 437.325
Gurwin Techsat 1B 21 Jan 01:09:53 01:13:46 20° 93° (E) 01:17:39 435.225
JAS-2 21 Jan 01:11:41 01:16:38 21° 301° (WNW) 01:21:50 435.910
YUBILEINY 21 Jan 01:17:22 01:26:13 72° 80° (E) 01:34:57 435.215
QB50P1 21 Jan 01:32:50 01:33:49 11° 299° (WNW) 01:34:48 145.935-145.965
MOZHAYETS 4 21 Jan 01:36:46 01:38:56 13° 62° (ENE) 01:41:07
BEESAT 3 21 Jan 01:38:20 01:42:06 41° 243° (WSW) 01:45:52 437.485
BEESAT 21 Jan 01:42:58 01:47:34 51° 72° (ENE) 01:52:12 436.000
SWISSCUBE 21 Jan 01:44:34 01:49:15 60° 73° (ENE) 01:53:57 437.505
PCSat 21 Jan 01:50:34 01:55:26 33° 309° (NW) 02:00:20 145.827
Cosmos 2491 21 Jan 02:06:07 02:14:45 74° 93° (E) 02:23:27 435.465 / 435.565
Cosmos 2504 21 Jan 02:13:29 02:20:56 86° 80° (E) 02:28:05 435.465 / 435.565
KKS-1 21 Jan 02:14:18 02:15:00 10° 60° (ENE) 02:15:42 437.445
AIST 1 21 Jan 02:16:40 02:19:16 16° 274° (W) 02:21:51
